Stations météo

réclame
Mon MeteoGroup
Le Touquet, France (7003): Température de l'air & dewpoint: 12.06.2018 13:00:00 - 18.06.2018 13:00:00 (CEST)Le Touquet, France (7003): Température de l'air 5cm: 12.06.2018 13:00:00 - 18.06.2018 13:00:00 (CEST)Le Touquet, France (7003): Vitesse du vent & gusts: 12.06.2018 13:00:00 - 18.06.2018 13:00:00 (CEST)Le Touquet, France (7003): Direction du vent: 12.06.2018 13:00:00 - 18.06.2018 13:00:00 (CEST)Le Touquet, France (7003): reduced air pressure: 12.06.2018 13:00:00 - 18.06.2018 13:00:00 (CEST)Le Touquet, France (7003): visibility: 12.06.2018 13:00:00 - 18.06.2018 13:00:00 (CEST)Le Touquet, France (7003): Ensoleillement: 12.06.2018 13:00:00 - 18.06.2018 13:00:00 (CEST)Le Touquet, France (7003): Quantités de précipitations: 12.06.2018 13:00:00 - 18.06.2018 13:00:00 (CEST)
Date & Time tt [°C] td [°C] tt 5cm [°C] ff [km/h] ff [knt] fx [km/h] fx [knt] dd ppp [hPa] vv [km] sd [min] rr [mm]
18.06.2018 13:00:00 15,9 13,4 16,4 24 13 42 23 WSW 1022,3 36 8 0,0
18.06.2018 12:00:00 15,3 13,0 14,9 21 12 36 19 WSW 1022,0 38 0 0,0
18.06.2018 11:00:00 14,5 13,7 14,9 22 12 39 21 WSW 1021,7 4,0 0 0,0
18.06.2018 10:00:00 15,4 13,4 15,2 18 10 44 24 WSW 1021,3 29 6 0,0
18.06.2018 09:00:00 14,7 14,1 14,6 18 10 29 16 WSW 1020,8 12 0 0,0
18.06.2018 08:00:00 14,7 14,4 14,5 15 8 29 16 WSW 1020,3 10 0 0,0
18.06.2018 07:00:00 14,9 14,7 14,7 15 8 34 18 WSW 1019,9 7 0 0,2
18.06.2018 06:00:00 15,1 14,8 14,9 14 8 34 18 WSW 1019,8 3,8 0 0,0
18.06.2018 05:00:00 15,4 15,1 15,1 16 9 33 18 WSW 1019,2 5 0 0,0
18.06.2018 04:00:00 15,4 15,1 15,0 19 11 30 16 SW 1019,3 3,9 0 0,2
18.06.2018 03:00:00 15,3 15,0 14,8 12 6 22 12 SSW 1019,4 3,1 0 0,4
18.06.2018 02:00:00 15,1 14,6 14,0 10 6 18 10 SSW 1019,7 2,4 0 1,0
18.06.2018 01:00:00 14,6 13,6 13,9 6 3 11 6 S 1020,0 3,5 0 0,2
18.06.2018 00:00:00 15,0 13,0 13,9 6 4 14 7 S 1020,3 8 0 0,0
17.06.2018 23:00:00 15,5 12,1 14,8 4 2 15 8 S 1020,1 43 0 0,0
17.06.2018 22:00:00 15,3 12,1 14,0 10 5 23 13 SW 1020,0 30 0 0,0
17.06.2018 21:00:00 15,4 11,4 15,2 12 6 24 13 WSW 1020,1 20 0 0,0
17.06.2018 20:00:00 15,4 11,4 15,7 9 5 23 13 W 1020,1 31 0 0,0
17.06.2018 19:00:00 15,5 11,1 16,1 13 7 27 15 W 1020,0 34 0 0,0
17.06.2018 18:00:00 16,1 11,3 18,3 15 8 35 19 W 1019,9 20 0 0,0
17.06.2018 17:00:00 16,4 12,0 19,1 20 11 37 20 WSW 1020,1 20 5 0,0
17.06.2018 16:00:00 16,1 12,3 18,1 18 10 43 23 WSW 1020,0 20 13 0,0
17.06.2018 15:00:00 15,6 12,0 18,0 21 11 42 23 WSW 1019,9 20 14 0,0
17.06.2018 14:00:00 16,4 12,2 19,4 21 11 46 25 W 1019,7 19 27 0,0
17.06.2018 13:00:00 16,8 12,1 20,6 23 12 44 24 WSW 1019,3 20 51 0,0
17.06.2018 12:00:00 16,2 11,6 16,3 26 14 42 23 WSW 1019,1 20 28 0,0
17.06.2018 11:00:00 15,3 11,7 15,7 21 11 40 22 W 1018,9 20 4 0,0
17.06.2018 10:00:00 15,0 11,6 15,3 21 11 35 19 W 1018,8 20 0 0,0
17.06.2018 09:00:00 14,5 11,6 14,7 18 10 36 19 WSW 1018,4 20 0 0,0
17.06.2018 08:00:00 14,4 11,7 14,2 20 11 37 20 WSW 1017,8 18 0 0,0
17.06.2018 07:00:00 14,2 11,7 13,7 21 12 38 21 W 1017,3 20 0 0,0
17.06.2018 06:00:00 14,0 11,9 13,7 14 8 35 19 W 1017,0 20 0 0,0
17.06.2018 05:00:00 14,1 11,8 13,6 20 11 38 20 W 1017,2 19 0 0,0
17.06.2018 04:00:00 14,1 11,6 13,1 21 12 39 21 W 1017,2 19 0 0,0
17.06.2018 03:00:00 14,0 11,3 13,2 19 11 40 22 W 1017,0 18 0 0,0
17.06.2018 02:00:00 14,5 11,5 13,9 21 11 35 19 WSW 1017,3 17 0 0,0
17.06.2018 01:00:00 14,9 11,5 14,6 16 9 33 18 WSW 1017,2 19 0 0,0
17.06.2018 00:00:00 15,2 12,5 14,8 15 8 34 18 WSW 1017,1 19 0 0,0
16.06.2018 23:00:00 15,2 12,5 15,0 17 9 31 17 WSW 1017,0 29 0 0,0
16.06.2018 22:00:00 15,7 12,3 15,4 16 8 29 15 WSW 1016,6 38 0 0,0
16.06.2018 21:00:00 16,0 11,6 16,0 15 8 25 13 SW 1016,6 29 12 0,0
16.06.2018 20:00:00 15,9 11,1 16,3 12 6 26 14 WSW 1016,8 37 9 0,0
16.06.2018 19:00:00 17,2 10,3 18,8 16 8 25 13 WSW 1016,6 23 32 0,0
16.06.2018 18:00:00 16,7 11,2 19,5 16 9 31 17 W 1016,8 25 31 0,0
16.06.2018 17:00:00 16,5 11,8 19,2 17 9 34 18 WSW 1017,0 23 2 0,0
16.06.2018 16:00:00 16,6 10,2 22,8 20 11 41 22 W 1017,0 18 58 0,0
16.06.2018 15:00:00 16,5 10,1 23,2 19 11 38 21 WSW 1017,0 19 60 0,0
16.06.2018 14:00:00 16,0 11,2 21,5 20 11 39 21 W 1017,0 21 42 0,0
16.06.2018 13:00:00 16,7 12,2 20,3 23 12 42 23 WSW 1017,1 22 42 0,0
16.06.2018 12:00:00 16,6 12,9 19,4 21 11 36 19 WSW 1016,9 19 47 0,0
16.06.2018 11:00:00 15,4 12,3 17,7 19 10 31 17 WSW 1017,0 24 19 0,0
16.06.2018 10:00:00 15,9 12,5 16,2 17 9 27 15 W 1016,8 20 19 0,0
16.06.2018 09:00:00 14,5 12,2 15,0 14 8 23 13 WSW 1016,7 28 0 0,0
16.06.2018 08:00:00 14,0 12,4 13,9 15 8 26 14 WSW 1016,5 20 0 0,0
16.06.2018 07:00:00 13,8 12,5 12,6 10 5 18 10 WSW 1016,2 20 0 0,0
16.06.2018 06:00:00 13,3 12,4 12,3 7 4 14 8 SW 1016,0 17 0 0,0
16.06.2018 05:00:00 13,5 12,4 12,5 10 6 16 9 SW 1016,2 16 0 0,0
16.06.2018 04:00:00 13,6 12,3 12,9 9 5 19 10 WSW 1016,7 17 0 0,0
16.06.2018 03:00:00 13,7 12,4 13,1 9 5 19 11 W 1016,7 17 0 0,0
16.06.2018 02:00:00 13,6 12,2 11,4 11 6 22 12 WSW 1017,1 19 0 0,0
16.06.2018 01:00:00 12,8 11,2 10,9 7 4 16 9 WSW 1017,2 19 0 0,0
16.06.2018 00:00:00 13,2 10,7 11,5 9 5 17 9 WSW 1017,5 20 0 0,0
15.06.2018 23:00:00 13,3 10,8 11,7 8 5 14 7 WSW 1017,5 20 0 0,0
15.06.2018 22:00:00 13,8 11,0 12,8 8 5 17 9 WSW 1017,4 19 25 0,0
15.06.2018 21:00:00 14,5 10,3 14,2 10 5 18 10 WSW 1017,6 44 0 0,0
15.06.2018 20:00:00 15,2 10,6 15,4 11 6 23 12 W 1017,7 32 48 0,0
15.06.2018 19:00:00 16,3 11,9 18,4 15 8 27 15 WSW 1017,8 19 60 0,0
15.06.2018 18:00:00 16,6 12,5 20,1 16 9 31 17 W 1017,9 18 57 0,0
15.06.2018 17:00:00 17,1 11,6 23,8 18 10 30 16 W 1018,2 19 58 0,0
15.06.2018 16:00:00 17,0 11,5 24,7 19 10 29 16 W 1018,1 19 60 0,0
15.06.2018 15:00:00 17,1 11,8 24,7 17 9 30 16 W 1018,0 19 60 0,0
15.06.2018 14:00:00 17,3 12,0 25,6 18 10 29 16 WSW 1018,2 18 60 0,0
15.06.2018 13:00:00 17,9 12,1 25,5 13 7 23 12 W 1017,9 19 60 0,0
15.06.2018 12:00:00 17,2 12,1 24,8 12 7 23 12 W 1017,7 17 60 0,0
15.06.2018 11:00:00 16,7 12,8 22,7 11 6 20 11 W 1017,6 20 60 0,0
15.06.2018 10:00:00 16,1 13,0 19,2 12 7 20 11 WSW 1017,3 20 58 0,0
15.06.2018 09:00:00 15,6 13,3 16,3 11 6 18 10 WSW 1017,2 19 53 0,0
15.06.2018 08:00:00 14,3 13,5 12,2 6 3 13 7 WSW 1016,6 7 51 0,0
15.06.2018 07:00:00 11,6 11,3 9,5 5 3 11 6 SE 1016,3 4,6 44 0,0
15.06.2018 06:00:00 11,7 11,1 8,9 9 5 13 7 SSE 1016,2 6 0 0,2
15.06.2018 05:00:00 13,0 12,2 9,9 4 2 19 11 SSW 1016,1 11 0 0,0
15.06.2018 04:00:00 13,4 12,5 11,9 11 6 21 11 SW 1016,1 12 0 0,0
15.06.2018 03:00:00 13,5 12,2 9,8 8 4 21 11 WSW 1016,5 13 0 0,0
15.06.2018 02:00:00 12,6 11,7 9,6 6 4 13 7 WSW 1016,6 13 0 0,0
15.06.2018 01:00:00 13,2 11,8 11,1 5 3 16 8 S 1016,7 13 0 0,0
15.06.2018 00:00:00 13,9 12,3 12,2 10 6 18 10 WSW 1017,0 13 0 0,0
14.06.2018 23:00:00 14,5 12,4 13,5 9 5 20 11 SW 1016,9 13 0 0,0
14.06.2018 22:00:00 15,0 12,7 14,5 12 6 29 16 WSW 1016,3 14 27 0,0
14.06.2018 21:00:00 15,9 13,0 15,8 14 8 32 18 WSW 1015,8 15 60 0,0
14.06.2018 20:00:00 16,4 13,1 17,0 15 8 36 20 WSW 1015,3 16 45 0,0
14.06.2018 19:00:00 16,6 14,2 17,7 23 13 41 22 WSW 1015,2 16 49 0,0
14.06.2018 18:00:00 17,3 15,1 16,3 22 12 41 22 WSW 1014,6 20 30 0,0
14.06.2018 17:00:00 15,7 14,9 15,5 22 12 42 23 SW 1014,6 18 0 0,0
14.06.2018 16:00:00 15,3 14,8 15,1 17 9 39 21 SW 1014,4 10 0 0,2
14.06.2018 15:00:00 15,0 14,4 14,9 16 9 37 20 SW 1014,6 2,3 0 0,8
14.06.2018 14:00:00 15,0 13,0 14,9 26 14 42 23 WSW 1014,7 5 0 0,0
14.06.2018 13:00:00 16,7 12,6 18,2 22 12 43 23 SW 1014,5 20 0 0,0
14.06.2018 12:00:00 16,1 12,8 18,6 21 11 40 21 SSW 1014,2 20 0 0,0
14.06.2018 11:00:00 15,8 12,5 16,3 21 11 37 20 SW 1014,5 33 0 0,0
14.06.2018 10:00:00 15,3 12,8 15,7 19 10 39 21 WSW 1014,8 20 0 0,0
14.06.2018 09:00:00 15,2 12,7 16,0 19 11 34 19 SW 1014,8 19 0 0,0
14.06.2018 08:00:00 15,3 12,4 12,7 17 9 31 17 SW 1014,7 29 0 0,0
14.06.2018 07:00:00 12,0 10,6 9,7 8 4 12 6 SE 1014,6 23 22 0,0
14.06.2018 06:00:00 10,4 9,0 8,6 7 4 12 7 SSE 1015,0 31 0 0,0
14.06.2018 05:00:00 10,0 8,6 8,6 8 4 11 6 SE 1015,5 31 0 0,0
14.06.2018 04:00:00 10,3 8,9 8,9 8 5 11 6 SE 1016,1 52 0 0,0
14.06.2018 03:00:00 10,8 9,4 9,3 7 4 9 5 SE 1016,8 41 0 0,0
14.06.2018 02:00:00 11,1 9,7 9,8 8 5 11 6 SE 1017,1 32 0 0,0
14.06.2018 01:00:00 11,1 9,7 9,5 8 4 10 5 SE 1017,5 33 0 0,0
14.06.2018 00:00:00 11,6 10,0 8,8 7 4 9 5 SSE 1017,9 12 0 0,0
13.06.2018 23:00:00 12,2 9,6 8,6 3 1 7 4 SSW 1018,3 19 0 0,0
13.06.2018 22:00:00 13,5 9,5 10,2 3 2 10 6 WSW 1018,5 19 27 0,0
13.06.2018 21:00:00 15,0 9,6 14,4 8 4 17 9 WNW 1018,5 53 60 0,0
13.06.2018 20:00:00 15,9 9,3 16,8 9 5 17 9 WNW 1018,5 59 60 0,0
13.06.2018 19:00:00 16,6 9,3 19,9 11 6 20 11 W 1018,7 50 60 0,0
13.06.2018 18:00:00 17,4 9,6 22,7 12 6 18 10 WNW 1018,8 44 60 0,0
13.06.2018 17:00:00 17,0 9,4 25,6 12 7 22 12 WNW 1019,2 33 60 0,0
13.06.2018 16:00:00 17,4 9,8 26,3 13 7 24 13 WNW 1019,5 34 60 0,0
13.06.2018 15:00:00 16,7 8,6 22,4 16 8 33 18 NW 1019,5 39 47 0,0
13.06.2018 14:00:00 16,8 9,2 23,0 16 9 27 14 NW 1019,9 20 60 0,0
13.06.2018 13:00:00 16,6 10,9 19,9 16 9 26 14 NW 1019,9 55 27 0,0
13.06.2018 12:00:00 16,6 9,3 18,2 10 5 22 12 WNW 1019,6 60 30 0,0
13.06.2018 11:00:00 15,2 9,3 18,4 14 8 21 11 NW 1020,0 60 14 0,0
13.06.2018 10:00:00 15,4 10,2 15,9 15 8 19 11 NW 1019,8 60 18 0,0
13.06.2018 09:00:00 14,4 9,8 15,8 11 6 20 11 NNE 1019,4 33 32 0,0
13.06.2018 08:00:00 13,7 11,4 13,1 11 6 18 10 N 1019,4 30 0 0,0
13.06.2018 07:00:00 12,9 11,1 11,8 11 6 17 9 N 1019,1 30 0 0,0
13.06.2018 06:00:00 12,2 10,8 11,3 8 5 12 6 N 1019,0 31 0 0,0
13.06.2018 05:00:00 11,7 10,3 10,6 9 5 12 7 NNW 1018,9 36 0 0,0
13.06.2018 04:00:00 11,4 10,1 9,2 6 4 10 6 N 1018,9 43 0 0,0
13.06.2018 03:00:00 10,4 9,5 5,1 3 2 5 3 NW 1018,9 36 0 0,0
13.06.2018 02:00:00 9,9 8,8 5,8 3 2 7 4 N 1018,9 33 0 0,0
13.06.2018 01:00:00 10,5 8,8 7,9 4 2 20 11 NNW 1018,9 44 0 0,0
13.06.2018 00:00:00 11,9 9,6 9,8 12 6 23 12 NE 1018,7 52 0 0,0
12.06.2018 23:00:00 12,3 9,5 10,4 9 5 22 12 NE 1018,3 56 0 0,0
12.06.2018 22:00:00 13,3 9,4 11,8 11 6 32 17 NNE 1017,7 60 26 0,0
12.06.2018 21:00:00 15,0 9,1 14,4 18 10 37 20 NNE 1017,0 51 60 0,0
12.06.2018 20:00:00 16,3 9,5 16,9 21 12 36 19 NNE 1016,7 28 56 0,0
12.06.2018 19:00:00 16,5 10,3 17,8 22 12 39 21 NNE 1016,3 29 33 0,0
12.06.2018 18:00:00 16,8 11,7 18,7 25 13 44 24 NNE 1016,6 31 23 0,0
12.06.2018 17:00:00 16,7 11,8 18,9 23 12 37 20 NNE 1016,3 31 0 0,0
12.06.2018 16:00:00 17,3 12,2 20,6 21 11 43 23 NNE 1016,0 19 3 0,0
12.06.2018 15:00:00 17,3 12,8 21,1 22 12 42 23 NNE 1015,6 15 1 0,0
12.06.2018 14:00:00 18,1 13,0 23,6 24 13 37 20 NNE 1015,2 9 33 0,0
12.06.2018 13:00:00 19,2 14,0 25,1 22 12 39 21 NNE 1014,8 8 52 0,0

tt = Température de l'air
td = dewpoint
tt 5cm = Température de l'air 5cm
ff = Vitesse du vent
fx = gusts
dd = Direction du vent
ppp = reduced air pressure
vv = visibility
sd = Ensoleillement
rr = Quantités de précipitations

stations d'obs. à proximité